Regional Weather Roundup
Issued by NWS

Home | Current Version | Previous Version | Text Only | Print | Product List | Glossary On
Versions: 1 2 3 4 5 6 7 8 9 10 11 12 13 14 15 16 17 18 19 20 21 22 23 24 25 26 27
000
ASUS44 KLIX 230312
RWRLA
LOUISIANA WEATHER ROUNDUP
NATIONAL WEATHER SERVICE NEW ORLEANS LA
900 PM CST WED FEB 22 2017

NOTE: "FAIR" INDICATES FEW OR NO CLOUDS BELOW 12,000 FEET WITH NO
      SIGNIFICANT WEATHER AND/OR OBSTRUCTIONS TO VISIBILITY.
      SKY/WX - SKY CONDITION AND SIGNIFICANT WEATHER.
      TMP - AIR TEMPERATURE.    DP   - DEWPOINT TEMPERATURE.
      RH  - RELATIVE HUMIDITY.  PRES - PRESSURE.
      HX  - HEAT INDEX.         WCI  - WIND CHILL INDEX.

*  THESE STATIONS ARE NOT NWS OR FAA STATIONS AND ARE NOT UNDER
   NWS QUALITY CONTROL.

LAZ040-048-061>063-065-066-069-230400-
SOUTHEAST LOUISIANA

CITY           SKY/WX    TMP DP  RH WIND       PRES   REMARKS
N.O. AUDUBON   NOT AVBL
N.O. INTL ARPT CLEAR     68  56  65 NE6       29.82R
N.O. LAKEFRONT CLEAR     66  61  84 NE5       29.83R
N.O. DOWNTOWN*   N/A     69  56  62 NE5       29.83S
RESERVE*       FAIR      64  62  94 CALM      29.83R
SLIDELL        CLEAR     58  55  90 CALM      29.82S
BATON ROUGE    CLEAR     64  56  75 NW3       29.84R
BOOTHVILLE     CLEAR     62  59  90 N5        29.82S
BELLE CHASSE   CLEAR     59  55  87 NE3       29.82R
BOGALUSA*      FAIR      57  54  88 CALM      29.84S
GALLIANO*      CLEAR     57  53  86 E3        29.83R
NEW ROADS*     FAIR      60  56  89 W3        29.85R
GONZALES*      FAIR      64  56  76 NW5       29.83R
HAMMOND*       CLEAR     59  54  82 CALM      29.83R
HOUMA*         CLEAR     60  56  85 CALM      29.83R
PORT FOURCHON* CLEAR     68  61  77 SE8       29.84R

$$

LAZ041-044-053-054-230400-
SOUTHWEST LOUISIANA

CITY           SKY/WX    TMP DP  RH WIND       PRES   REMARKS
LAKE CHARLES   CLEAR     63  60  90 CALM      29.84S
LAFAYETTE      CLEAR     64  56  75 CALM      29.85R
PATTERSON      CLEAR     63  57  81 W5        29.85R
SALT POINT       N/A     64  60  87 W5        29.83R
NEW IBERIA     CLEAR     61  55  81 W3        29.85R
CHENAULT AIRPK NOT AVBL

$$

LAZ027-028-230400-
CENTRAL LOUISIANA

CITY           SKY/WX    TMP DP  RH WIND       PRES   REMARKS
FORT POLK      CLEAR     58  56  94 CALM      29.84R
ALEXANDRIA INT CLEAR     61  56  83 E3        29.83R
ALEXANDRIA     CLEAR     56  55  97 CALM      29.85R FOG

$$

LAZ001-002-230400-
NORTHWEST LOUISIANA

CITY           SKY/WX    TMP DP  RH WIND       PRES   REMARKS
SHREVEPORT     CLEAR     63  56  78 SE3       29.80S
BARKSDALE AFB  CLEAR     59  55  87 S6        29.81S
DTN SHREVEPORT CLEAR     62  55  77 SE5       29.81R

$$

LAZ014-016-230400-
NORTHEAST LOUISIANA

CITY           SKY/WX    TMP DP  RH WIND       PRES   REMARKS
MONROE         CLEAR     60  54  80 SW3       29.84R
TALLULAH       PTCLDY    61  57  87 CALM      29.85R

$$





USA.gov is the U.S. government's official web portal to all federal, state and local government web resources and services.